CW8164 Weather Reports


Display with metric or nautical units.
time (UTC)temp
F
wind
direction
speed
MPH
gust
MPH
rain 1hr
in
rain 24hr
in
rain mn
in
humidity
%
barometer
mb
20260509203404 73 63 1.0 5.0 0.00 0.00 0.00 57 1017.5
20260509202903 72 348 0.0 3.0 0.00 0.00 0.00 58 1017.5
20260509202405 72 217 0.0 5.0 0.00 0.00 0.00 54 1017.6
20260509201904 73 227 0.0 5.0 0.00 0.00 0.00 54 1017.6
20260509200904 73 230 0.0 2.0 0.00 0.00 0.00 55 1017.7
20260509200404 73 214 0.0 7.0 0.00 0.00 0.00 58 1017.8
20260509195904 73 36 0.0 7.0 0.00 0.00 0.00 55 1017.9
20260509195404 73 293 0.0 3.0 0.00 0.00 0.00 56 1017.8
20260509194904 72 256 0.0 5.0 0.00 0.00 0.00 58 1017.9
20260509194404 72 237 0.0 5.0 0.00 0.00 0.00 60 1018.0
20260509193904 72 28 0.0 2.0 0.00 0.00 0.00 58 1018.1
20260509193404 71 0 0.0 5.0 0.00 0.00 0.00 59 1018.1
20260509192904 71 47 1.0 5.0 0.00 0.00 0.00 59 1018.2
20260509192404 71 195 0.0 5.0 0.00 0.00 0.00 58 1018.2
20260509191904 71 184 0.0 5.0 0.00 0.00 0.00 57 1018.4
20260509191404 70 240 1.0 5.0 0.00 0.00 0.00 61 1018.5
20260509190905 70 186 0.0 3.0 0.00 0.00 0.00 59 1018.5
20260509190404 70 253 0.0 3.0 0.00 0.00 0.00 58 1018.5
20260509185905 69 36 1.0 3.0 0.00 0.00 0.00 60 1018.7
20260509184904 69 212 0.0 3.0 0.00 0.00 0.00 59 1018.8
20260509184404 69 38 0.0 2.0 0.00 0.00 0.00 62 1018.8
20260509183904 68 299 0.0 2.0 0.00 0.00 0.00 66 1018.9
20260509183403 68 25 0.0 2.0 0.00 0.00 0.00 64 1019.0
20260509182904 67 223 0.0 3.0 0.00 0.00 0.00 64 1019.0
20260509182404 67 218 0.0 3.0 0.00 0.00 0.00 67 1019.0
20260509181904 67 255 0.0 2.0 0.00 0.00 0.00 62 1019.1
20260509181405 67 246 0.0 2.0 0.00 0.00 0.00 65 1019.1
20260509180904 67 240 0.0 3.0 0.00 0.00 0.00 65 1019.1
20260509175904 65 54 0.0 3.0 0.00 0.00 0.00 66 1019.3
20260509175405 65 95 0.0 3.0 0.00 0.00 0.00 63 1019.3
20260509174904 65 358 0.0 3.0 0.00 0.00 0.00 69 1019.4
20260509173904 64 226 0.0 2.0 0.00 0.00 0.00 68 1019.6
20260509173404 64 57 0.0 2.0 0.00 0.00 0.00 68 1019.7
20260509172405 63 235 0.0 0.0 0.00 0.00 0.00 69 1019.8
20260509171904 63 259 0.0 2.0 0.00 0.00 0.00 72 1020.0
20260509171404 62 272 0.0 2.0 0.00 0.00 0.00 70 1019.9
20260509170904 62 165 0.0 2.0 0.00 0.00 0.00 70 1020.0
20260509170404 61 263 0.0 1.0 0.00 0.00 0.00 71 1020.0
20260509165904 61 197 0.0 2.0 0.00 0.00 0.00 70 1020.2
20260509165405 61 256 0.0 3.0 0.00 0.00 0.00 74 1020.2
20260509164904 61 176 0.0 3.0 0.00 0.00 0.00 73 1020.2
20260509164405 60 275 0.0 1.0 0.00 0.00 0.00 76 1020.3
20260509162404 60 296 1.0 2.0 0.00 0.00 0.00 74 1020.8
20260509161904 59 278 0.0 0.0 0.00 0.00 0.00 75 1020.8
20260509161404 59 276 0.0 1.0 0.00 0.00 0.00 76 1020.7
20260509160904 58 189 0.0 2.0 0.00 0.00 0.00 75 1020.7
20260509155904 58 287 0.0 2.0 0.00 0.00 0.00 76 1020.6
20260509154904 57 81 0.0 0.0 0.00 0.00 0.00 77 1020.7
20260509154404 57 102 0.0 0.0 0.00 0.00 0.00 80 1020.8
20260509153904 56 90 0.0 0.0 0.00 0.00 0.00 80 1020.9
20260509153404 56 92 0.0 0.0 0.00 0.00 0.00 81 1021.1
20260509152904 55 60 0.0 0.0 0.00 0.00 0.00 83 1021.2
20260509152404 54 290 0.0 0.0 0.00 0.00 0.00 82 1021.3
20260509151905 54 287 0.0 0.0 0.00 0.00 0.00 82 1021.4
20260509151404 54 314 0.0 0.0 0.00 0.00 0.00 83 1021.5
20260509150904 54 36 0.0 0.0 0.00 0.00 0.00 84 1021.5
20260509150404 54 342 0.0 0.0 0.00 0.00 0.00 84 1021.6
20260509145404 53 74 0.0 0.0 0.00 0.00 0.00 84 1021.5
20260509144404 52 38 0.0 0.0 0.00 0.00 0.00 85 1021.4
20260509143904 51 41 0.0 0.0 0.00 0.00 0.00 87 1021.4
20260509143405 51 88 0.0 0.0 0.00 0.00 0.00 87 1021.3
20260509142904 51 88 0.0 0.0 0.00 0.00 0.00 88 1021.2
20260509142404 50 111 0.0 0.0 0.00 0.00 0.00 89 1021.2
20260509141905 49 126 0.0 0.0 0.00 0.00 0.00 89 1021.1
20260509141404 48 142 0.0 0.0 0.00 0.00 0.00 90 1021.1
20260509140904 47 142 0.0 0.0 0.00 0.00 0.00 91 1021.1
20260509140404 47 142 0.0 0.0 0.00 0.00 0.00 92 1021.0
20260509135904 46 142 0.0 0.0 0.00 0.00 0.00 93 1021.0
20260509135404 45 142 0.0 0.0 0.00 0.00 0.00 94 1021.0
20260509134904 44 142 0.0 0.0 0.00 0.00 0.00 94 1021.0
20260509134404 44 142 0.0 0.0 0.00 0.00 0.00 94 1020.9
20260509133904 43 142 0.0 0.0 0.00 0.00 0.00 94 1021.1
20260509132904 42 142 0.0 0.0 0.00 0.00 0.00 94 1021.0
20260509132404 42 142 0.0 0.0 0.00 0.00 0.00 93 1021.0
20260509131904 42 142 0.0 0.0 0.00 0.00 0.00 93 1021.0
20260509131404 42 142 0.0 0.0 0.00 0.00 0.00 93 1021.0
20260509130904 42 142 0.0 0.0 0.00 0.00 0.00 93 1021.0
20260509130404 42 142 0.0 0.0 0.00 0.00 0.00 93 1021.0
20260509125904 42 142 0.0 0.0 0.00 0.00 0.00 93 1021.1
20260509125404 42 142 0.0 0.0 0.00 0.00 0.00 93 1021.1
20260509124904 42 142 0.0 0.0 0.00 0.00 0.00 93 1021.2
20260509122904 42 142 0.0 0.0 0.00 0.00 0.00 92 1021.1
20260509122404 42 142 0.0 0.0 0.00 0.00 0.00 93 1021.1
20260509121404 43 142 0.0 0.0 0.00 0.00 0.00 93 1021.0
20260509115904 43 142 0.0 0.0 0.00 0.00 0.00 93 1021.1
20260509115404 43 142 0.0 0.0 0.00 0.00 0.00 93 1021.1
20260509114905 44 142 0.0 0.0 0.00 0.00 0.00 93 1021.2
20260509113904 43 142 0.0 0.0 0.00 0.00 0.00 92 1021.2
20260509113404 44 142 0.0 0.0 0.00 0.00 0.00 92 1021.2
20260509112904 44 142 0.0 0.0 0.00 0.00 0.00 92 1021.4
20260509112404 44 142 0.0 0.0 0.00 0.00 0.00 92 1021.5
20260509111904 44 142 0.0 0.0 0.00 0.00 0.00 92 1021.5
20260509111404 44 142 0.0 0.0 0.00 0.00 0.00 92 1021.5
20260509110404 44 142 0.0 0.0 0.00 0.00 0.00 91 1021.5
20260509105904 44 183 0.0 0.0 0.00 0.00 0.00 92 1021.6
20260509104905 45 183 0.0 0.0 0.00 0.00 0.00 92 1021.5
20260509104404 45 183 0.0 0.0 0.00 0.00 0.00 92 1021.5
20260509103904 45 183 0.0 0.0 0.00 0.00 0.00 91 1021.5
20260509103404 45 183 0.0 0.0 0.00 0.00 0.00 91 1021.5
20260509102904 46 183 0.0 0.0 0.00 0.00 0.00 91 1021.5
20260509102405 46 183 0.0 0.0 0.00 0.00 0.00 91 1021.5
20260509101904 46 183 0.0 0.0 0.00 0.00 0.00 91 1021.5
20260509101404 46 186 0.0 0.0 0.00 0.00 0.00 91 1021.6
20260509100405 46 186 0.0 0.0 0.00 0.00 0.00 91 1021.5
20260509095904 46 186 0.0 0.0 0.00 0.00 0.00 90 1021.5
20260509095404 47 186 0.0 0.0 0.00 0.00 0.00 91 1021.6
20260509094404 47 193 0.0 0.0 0.00 0.00 0.00 90 1021.7
20260509093905 47 193 0.0 0.0 0.00 0.00 0.00 89 1021.7
20260509093404 47 193 0.0 0.0 0.00 0.00 0.00 89 1021.7
20260509092904 48 193 0.0 0.0 0.00 0.00 0.00 89 1021.7
20260509091905 48 193 0.0 0.0 0.00 0.00 0.00 88 1021.8
20260509091404 48 193 0.0 0.0 0.00 0.00 0.00 88 1021.9
20260509090904 49 193 0.0 0.0 0.00 0.00 0.00 88 1021.9
20260509090404 49 193 0.0 0.0 0.00 0.00 0.00 87 1021.9
20260509085905 50 193 0.0 0.0 0.00 0.00 0.00 87 1022.0
20260509085404 50 193 0.0 0.0 0.00 0.00 0.00 85 1022.0
20260509084404 51 194 0.0 0.0 0.00 0.00 0.00 85 1022.0
20260509083904 51 193 0.0 0.0 0.00 0.00 0.00 84 1022.0
20260509083404 52 194 0.0 0.0 0.00 0.00 0.00 84 1022.1
20260509082904 52 194 0.0 0.0 0.00 0.00 0.00 84 1022.1
20260509081904 52 194 0.0 0.0 0.00 0.00 0.00 84 1022.2
20260509081404 52 194 0.0 0.0 0.00 0.00 0.00 83 1022.2
20260509080404 53 194 0.0 0.0 0.00 0.00 0.00 83 1022.1
20260509075904 53 194 0.0 0.0 0.00 0.00 0.00 82 1022.2
20260509075404 53 194 0.0 0.0 0.00 0.00 0.00 82 1022.1
20260509074904 53 194 0.0 0.0 0.00 0.00 0.00 82 1022.2
20260509074404 54 194 0.0 0.0 0.00 0.00 0.00 81 1022.3
20260509073904 54 194 0.0 0.0 0.00 0.00 0.00 81 1022.3
20260509073405 54 194 0.0 0.0 0.00 0.00 0.00 80 1022.3
20260509072405 54 194 0.0 0.0 0.00 0.00 0.00 80 1022.3
20260509071904 54 194 0.0 0.0 0.00 0.00 0.00 80 1022.3
20260509070404 55 194 0.0 0.0 0.00 0.00 0.00 78 1022.2
20260509065404 55 194 0.0 0.0 0.00 0.00 0.00 78 1022.2
20260509064904 56 194 0.0 0.0 0.00 0.00 0.00 77 1022.1
20260509064405 56 194 0.0 0.0 0.00 0.00 0.00 76 1022.1
20260509062904 56 194 0.0 0.0 0.00 0.00 0.00 75 1022.2
20260509061904 57 194 0.0 0.0 0.00 0.00 0.00 75 1022.1
20260509061404 57 229 0.0 0.0 0.00 0.00 0.00 74 1022.0
20260509060904 57 230 0.0 0.0 0.00 0.00 0.00 72 1021.9
20260509060405 58 234 0.0 0.0 0.00 0.00 0.00 71 1021.9
20260509055904 58 252 0.0 0.0 0.00 0.00 0.00 71 1021.9
20260509054904 58 253 0.0 0.0 0.00 0.00 0.00 71 1021.9
20260509054404 58 253 0.0 0.0 0.00 0.00 0.00 70 1021.9
20260509053904 58 253 0.0 0.0 0.00 0.00 0.00 70 1021.9
20260509053404 59 253 0.0 0.0 0.00 0.00 0.00 69 1022.0
20260509051905 59 221 0.0 0.0 0.00 0.00 0.00 70 1022.0
20260509051404 59 221 0.0 0.0 0.00 0.00 0.00 67 1022.0
20260509050904 59 221 0.0 0.0 0.00 0.00 0.00 67 1022.0
20260509050404 59 221 0.0 0.0 0.00 0.00 0.00 68 1021.9
20260509045904 59 146 0.0 0.0 0.00 0.00 0.00 68 1021.9
20260509045404 60 146 0.0 0.0 0.00 0.00 0.00 68 1021.9
20260509044904 60 146 0.0 0.0 0.00 0.00 0.00 67 1021.9
20260509044404 60 146 0.0 0.0 0.00 0.00 0.00 67 1021.8
20260509043904 60 146 0.0 2.0 0.00 0.00 0.00 66 1021.8
20260509043404 60 38 0.0 2.0 0.00 0.00 0.00 67 1021.7
20260509042904 60 267 0.0 2.0 0.00 0.00 0.00 66 1021.7
20260509042404 60 323 0.0 0.0 0.00 0.00 0.00 67 1021.7
20260509041404 60 294 0.0 0.0 0.00 0.00 0.00 68 1021.6
20260509040405 61 295 0.0 0.0 0.00 0.00 0.00 68 1021.6
20260509035404 61 291 0.0 0.0 0.00 0.00 0.00 67 1021.3
20260509034905 61 222 0.0 1.0 0.00 0.00 0.00 67 1021.3
20260509034404 61 169 0.0 1.0 0.00 0.00 0.00 65 1021.2
20260509033904 61 315 0.0 1.0 0.00 0.00 0.00 65 1021.2
20260509033404 62 257 0.0 2.0 0.00 0.00 0.00 65 1021.2
20260509032905 62 261 0.0 2.0 0.00 0.00 0.00 64 1021.1
20260509032405 62 297 0.0 0.0 0.00 0.00 0.00 63 1021.1
20260509031404 63 297 0.0 0.0 0.00 0.00 0.00 62 1021.0
20260509030904 63 297 0.0 0.0 0.00 0.00 0.00 62 1020.9
20260509030404 63 293 0.0 0.0 0.00 0.00 0.00 60 1020.9
20260509025905 63 321 0.0 0.0 0.00 0.00 0.00 62 1020.9
20260509025404 63 332 0.0 0.0 0.00 0.00 0.00 60 1020.9
20260509024904 64 177 0.0 0.0 0.00 0.00 0.00 59 1020.8
20260509024404 64 206 0.0 0.0 0.00 0.00 0.00 57 1020.8
20260509023905 64 288 0.0 2.0 0.00 0.00 0.00 58 1020.8
20260509023405 64 281 0.0 2.0 0.00 0.00 0.00 56 1020.8
20260509022904 64 192 0.0 2.0 0.00 0.00 0.00 58 1020.8
20260509022404 65 121 0.0 2.0 0.00 0.00 0.00 57 1020.8
20260509021905 65 32 0.0 0.0 0.00 0.00 0.00 55 1020.8
20260509021404 65 137 0.0 0.0 0.00 0.00 0.00 57 1020.8
20260509020405 65 44 0.0 2.0 0.00 0.00 0.00 55 1020.8
20260509015904 66 12 0.0 2.0 0.00 0.00 0.00 55 1020.8
20260509015404 66 237 0.0 2.0 0.00 0.00 0.00 54 1020.8
20260509014904 66 239 0.0 0.0 0.00 0.00 0.00 53 1020.8
20260509014405 66 286 0.0 2.0 0.00 0.00 0.00 52 1020.8
20260509013904 66 213 0.0 3.0 0.00 0.00 0.00 52 1020.7
20260509013404 67 58 0.0 3.0 0.00 0.00 0.00 51 1020.7
20260509012904 67 218 1.0 3.0 0.00 0.00 0.00 52 1020.8
20260509012404 67 147 0.0 5.0 0.00 0.00 0.00 50 1020.8
20260509011904 68 98 0.0 5.0 0.00 0.00 0.00 50 1020.8
20260509011404 68 97 0.0 2.0 0.00 0.00 0.00 51 1020.9
20260509010905 68 348 0.0 5.0 0.00 0.00 0.00 53 1020.9
20260509010404 68 270 0.0 5.0 0.00 0.00 0.00 50 1020.9
20260509005904 68 212 0.0 2.0 0.00 0.00 0.00 51 1021.0
20260509004904 67 52 0.0 3.0 0.00 0.00 0.00 52 1021.0
20260509004404 67 1 0.0 3.0 0.00 0.00 0.00 52 1020.9
20260509003904 66 22 0.0 2.0 0.00 0.00 0.00 55 1021.0
20260509003404 66 49 0.0 6.0 0.00 0.00 0.00 51 1020.9
20260509002404 66 82 0.0 2.0 0.00 0.00 0.00 50 1021.1
20260509001904 67 230 0.0 1.0 0.00 0.00 0.00 50 1021.1
20260509001404 67 156 0.0 3.0 0.00 0.00 0.00 49 1021.0
20260509000904 68 357 1.0 3.0 0.00 0.00 0.00 47 1021.0
20260509000405 68 272 0.0 6.0 0.00 0.00 0.00 48 1021.0
20260508235904 68 49 0.0 6.0 0.00 0.00 0.00 48 1021.0
20260508235404 68 55 1.0 3.0 0.00 0.00 0.00 47 1021.1
20260508234905 68 102 0.0 3.0 0.00 0.00 0.00 47 1021.1
20260508234404 68 31 0.0 3.0 0.00 0.00 0.00 51 1021.2
20260508233904 68 38 1.0 3.0 0.00 0.00 0.00 47 1021.2
20260508233404 68 106 0.0 2.0 0.00 0.00 0.00 48 1021.2
20260508232905 68 25 0.0 2.0 0.00 0.00 0.00 45 1021.2
20260508232404 68 47 0.0 2.0 0.00 0.00 0.00 47 1021.1
20260508231904 68 325 0.0 5.0 0.00 0.00 0.00 47 1021.2
20260508231404 67 195 0.0 6.0 0.00 0.00 0.00 48 1021.2
20260508230905 67 278 0.0 6.0 0.00 0.00 0.00 49 1021.1
20260508225405 67 29 1.0 6.0 0.00 0.00 0.00 49 1021.2
20260508224904 67 345 0.0 3.0 0.00 0.00 0.00 47 1021.3
20260508224404 67 222 0.0 3.0 0.00 0.00 0.00 48 1021.4
20260508223405 67 9 0.0 3.0 0.00 0.00 0.00 49 1021.4
20260508222904 67 302 0.0 3.0 0.00 0.00 0.00 51 1021.3
20260508222404 66 268 0.0 5.0 0.00 0.00 0.00 49 1021.3
20260508221904 66 169 0.0 5.0 0.00 0.00 0.00 51 1021.4
20260508221405 66 184 0.0 5.0 0.00 0.00 0.00 50 1021.5
20260508220905 66 129 0.0 5.0 0.00 0.00 0.00 47 1021.5
20260508220405 65 343 0.0 3.0 0.00 0.00 0.00 54 1021.5
20260508215904 65 105 0.0 5.0 0.00 0.00 0.00 52 1021.5
20260508215404 65 23 1.0 5.0 0.00 0.00 0.00 53 1021.5
20260508213404 65 224 0.0 6.0 0.00 0.00 0.00 50 1021.5
20260508212904 64 340 0.0 6.0 0.00 0.00 0.00 55 1021.5
20260508212404 64 334 1.0 3.0 0.00 0.00 0.00 49 1021.5
20260508211404 64 236 0.0 7.0 0.00 0.00 0.00 50 1021.5
20260508210904 64 38 1.0 9.0 0.00 0.00 0.00 50 1021.6
20260508210405 64 216 1.0 9.0 0.00 0.00 0.00 49 1021.6
20260508205904 64 285 0.0 6.0 0.00 0.00 0.00 50 1021.7
20260508205404 64 178 1.0 7.0 0.00 0.00 0.00 52 1021.5
20260508204905 63 243 1.0 7.0 0.00 0.00 0.00 52 1021.5
20260508204404 63 54 0.0 7.0 0.00 0.00 0.00 54 1021.5
20260508203905 63 73 0.0 7.0 0.00 0.00 0.00 52 1021.6